Location: Dilsberg
(49.3983°N, 8.8354°E)
Time: 07:36:07
(UTC+00:00)

ARIANE 6 FM1 Upper Stage - Pass Details

Date: 19 May 2025
Orbit: 530 x 611 km, 62.0° (Epoch: 22 June)

Event Time Altitude Azimuth Distance (km) Brightness Sun altitude
Rises 20:18:16 0° 219° (SW) 2,661 6.0 -9.7°
Reaches altitude 10° 20:20:27 10° 218° (SW) 1,775 5.1 -9.9°
Maximum altitude 20:24:25 78° 133° (SE) 551 2.5 -10.3°
Drops below altitude 10° 20:28:27 10° 47° (NE) 1,802 5.3 -10.8°
Sets 20:30:41 0° 46° (NE) 2,706 6.2 -11.0°
